| time (UTC) | temp F | wind direction | speed MPH | gust MPH | rain 1hr in | rain 24hr in | rain mn in | humidity % | barometer mb |
| 20260507212356 | 60 | 131 | 0.0 | 0.0 | 0.00 | 0.00 | 0.00 | 73 | 1015.2 |
| 20260507211357 | 60 | 131 | 0.0 | 2.0 | 0.00 | 0.00 | 0.00 | 73 | 1015.3 |
| 20260507210337 | 60 | 131 | 2.0 | 4.0 | 0.00 | 0.00 | 0.00 | 73 | 1015.2 |
| 20260507205338 | 61 | 131 | 3.0 | 5.0 | 0.00 | 0.00 | 0.00 | 72 | 1015.3 |
| 20260507204339 | 61 | 104 | 0.0 | 0.0 | 0.00 | 0.00 | 0.00 | 71 | 1015.1 |
| 20260507203340 | 61 | 104 | 0.0 | 0.0 | 0.00 | 0.00 | 0.00 | 71 | 1015.2 |
| 20260507202341 | 61 | 104 | 0.0 | 2.0 | 0.00 | 0.00 | 0.00 | 70 | 1015.2 |
| 20260507201355 | 61 | 105 | 0.0 | 2.0 | 0.00 | 0.00 | 0.00 | 68 | 1015.0 |
| 20260507200357 | 62 | 105 | 2.0 | 4.0 | 0.00 | 0.00 | 0.00 | 68 | 1014.8 |
| 20260507195353 | 62 | 109 | 1.0 | 3.0 | 0.00 | 0.00 | 0.00 | 67 | 1014.7 |
| 20260507194355 | 62 | 109 | 0.0 | 4.0 | 0.00 | 0.00 | 0.00 | 66 | 1014.6 |
| 20260507193353 | 63 | 111 | 2.0 | 4.0 | 0.00 | 0.00 | 0.00 | 65 | 1014.4 |
| 20260507192356 | 63 | 133 | 0.0 | 3.0 | 0.00 | 0.00 | 0.00 | 64 | 1014.3 |
| 20260507191357 | 63 | 123 | 0.0 | 2.0 | 0.00 | 0.00 | 0.00 | 63 | 1014.2 |
| 20260507190340 | 63 | 118 | 1.0 | 3.0 | 0.00 | 0.00 | 0.00 | 62 | 1014.0 |
| 20260507185359 | 63 | 118 | 0.0 | 3.0 | 0.00 | 0.00 | 0.00 | 61 | 1014.0 |
| 20260507184337 | 63 | 118 | 0.0 | 5.0 | 0.00 | 0.00 | 0.00 | 62 | 1013.9 |
| 20260507183341 | 63 | 137 | 1.0 | 4.0 | 0.00 | 0.00 | 0.00 | 63 | 1013.8 |
| 20260507182357 | 63 | 153 | 2.0 | 7.0 | 0.00 | 0.00 | 0.00 | 63 | 1013.5 |
| 20260507181340 | 63 | 139 | 1.0 | 7.0 | 0.00 | 0.00 | 0.00 | 64 | 1013.6 |
| 20260507180344 | 64 | 141 | 3.0 | 7.0 | 0.00 | 0.00 | 0.00 | 64 | 1013.4 |
| 20260507175345 | 64 | 100 | 4.0 | 10.0 | 0.00 | 0.00 | 0.00 | 64 | 1013.4 |
| 20260507174351 | 64 | 109 | 3.0 | 9.0 | 0.00 | 0.00 | 0.00 | 63 | 1013.4 |
| 20260507173356 | 65 | 168 | 4.0 | 7.0 | 0.00 | 0.00 | 0.00 | 62 | 1013.3 |
| 20260507172350 | 64 | 141 | 3.0 | 8.0 | 0.00 | 0.00 | 0.00 | 61 | 1013.3 |
| 20260507171357 | 64 | 85 | 5.0 | 8.0 | 0.00 | 0.00 | 0.00 | 62 | 1013.2 |
| 20260507170337 | 64 | 123 | 3.0 | 9.0 | 0.00 | 0.00 | 0.00 | 62 | 1013.1 |
| 20260507165357 | 64 | 140 | 4.0 | 9.0 | 0.00 | 0.00 | 0.00 | 62 | 1013.1 |
| 20260507164358 | 65 | 109 | 4.0 | 7.0 | 0.00 | 0.00 | 0.00 | 61 | 1013.1 |
| 20260507163343 | 65 | 113 | 5.0 | 8.0 | 0.00 | 0.00 | 0.00 | 61 | 1013.0 |
| 20260507162355 | 64 | 113 | 6.0 | 10.0 | 0.00 | 0.00 | 0.00 | 59 | 1012.9 |
| 20260507161339 | 65 | 107 | 2.0 | 12.0 | 0.00 | 0.00 | 0.00 | 59 | 1012.9 |
| 20260507160355 | 64 | 163 | 2.0 | 12.0 | 0.00 | 0.00 | 0.00 | 59 | 1012.9 |
| 20260507155352 | 64 | 127 | 6.0 | 13.0 | 0.00 | 0.00 | 0.00 | 60 | 1013.0 |
| 20260507154337 | 64 | 111 | 3.0 | 14.0 | 0.00 | 0.00 | 0.00 | 59 | 1013.1 |
| 20260507153345 | 65 | 81 | 5.0 | 13.0 | 0.00 | 0.00 | 0.00 | 58 | 1013.1 |
| 20260507152342 | 66 | 89 | 5.0 | 11.0 | 0.00 | 0.00 | 0.00 | 55 | 1013.2 |
| 20260507151350 | 66 | 114 | 2.0 | 11.0 | 0.00 | 0.00 | 0.00 | 56 | 1013.0 |
| 20260507150355 | 66 | 155 | 7.0 | 12.0 | 0.00 | 0.00 | 0.00 | 55 | 1013.2 |
| 20260507145352 | 66 | 106 | 2.0 | 9.0 | 0.00 | 0.00 | 0.00 | 54 | 1013.3 |
| 20260507144337 | 66 | 121 | 3.0 | 8.0 | 0.00 | 0.00 | 0.00 | 54 | 1013.1 |
| 20260507143339 | 66 | 130 | 2.0 | 11.0 | 0.00 | 0.00 | 0.00 | 54 | 1013.3 |
| 20260507142338 | 66 | 127 | 5.0 | 10.0 | 0.00 | 0.00 | 0.00 | 53 | 1013.3 |
| 20260507141357 | 66 | 118 | 5.0 | 11.0 | 0.00 | 0.00 | 0.00 | 53 | 1013.4 |
| 20260507140355 | 67 | 128 | 5.0 | 10.0 | 0.00 | 0.00 | 0.00 | 51 | 1013.3 |
| 20260507135348 | 66 | 134 | 8.0 | 15.0 | 0.00 | 0.00 | 0.00 | 51 | 1013.5 |
| 20260507134350 | 66 | 125 | 6.0 | 11.0 | 0.00 | 0.00 | 0.00 | 52 | 1013.8 |
| 20260507133339 | 66 | 112 | 5.0 | 12.0 | 0.00 | 0.00 | 0.00 | 51 | 1013.8 |
| 20260507132337 | 65 | 125 | 8.0 | 16.0 | 0.00 | 0.00 | 0.00 | 52 | 1014.0 |
| 20260507131337 | 65 | 83 | 9.0 | 16.0 | 0.00 | 0.00 | 0.00 | 53 | 1014.0 |
| 20260507130340 | 66 | 116 | 9.0 | 15.0 | 0.00 | 0.00 | 0.00 | 52 | 1014.0 |
| 20260507125354 | 66 | 241 | 3.0 | 14.0 | 0.00 | 0.00 | 0.00 | 53 | 1014.1 |
| 20260507124357 | 66 | 190 | 7.0 | 12.0 | 0.00 | 0.00 | 0.00 | 53 | 1014.2 |
| 20260507123340 | 66 | 76 | 4.0 | 15.0 | 0.00 | 0.00 | 0.00 | 55 | 1014.4 |
| 20260507122336 | 65 | 122 | 8.0 | 14.0 | 0.00 | 0.00 | 0.00 | 56 | 1014.4 |
| 20260507121340 | 66 | 130 | 9.0 | 15.0 | 0.00 | 0.00 | 0.00 | 55 | 1014.5 |
| 20260507120342 | 65 | 137 | 8.0 | 16.0 | 0.00 | 0.00 | 0.00 | 56 | 1014.4 |
| 20260507115342 | 65 | 156 | 6.0 | 16.0 | 0.00 | 0.00 | 0.00 | 57 | 1014.5 |
| 20260507114348 | 66 | 123 | 4.0 | 16.0 | 0.00 | 0.00 | 0.00 | 56 | 1014.4 |
| 20260507113358 | 67 | 180 | 4.0 | 11.0 | 0.00 | 0.00 | 0.00 | 56 | 1014.4 |
| 20260507112353 | 67 | 207 | 3.0 | 10.0 | 0.00 | 0.00 | 0.00 | 57 | 1014.4 |
| 20260507111354 | 66 | 121 | 4.0 | 12.0 | 0.00 | 0.00 | 0.00 | 58 | 1014.6 |
| 20260507110335 | 66 | 138 | 4.0 | 13.0 | 0.00 | 0.00 | 0.00 | 59 | 1014.7 |
| 20260507105355 | 66 | 122 | 5.0 | 11.0 | 0.00 | 0.00 | 0.00 | 58 | 1014.8 |
| 20260507104337 | 66 | 220 | 3.0 | 12.0 | 0.00 | 0.00 | 0.00 | 59 | 1014.9 |
| 20260507103339 | 66 | 199 | 6.0 | 12.0 | 0.00 | 0.00 | 0.00 | 58 | 1015.1 |
| 20260507102357 | 66 | 118 | 4.0 | 11.0 | 0.00 | 0.00 | 0.00 | 58 | 1015.1 |
| 20260507101358 | 65 | 142 | 3.0 | 12.0 | 0.00 | 0.00 | 0.00 | 59 | 1015.2 |
| 20260507100354 | 65 | 131 | 4.0 | 10.0 | 0.00 | 0.00 | 0.00 | 60 | 1015.2 |
| 20260507095353 | 64 | 164 | 2.0 | 9.0 | 0.00 | 0.00 | 0.00 | 61 | 1015.1 |
| 20260507094354 | 65 | 132 | 3.0 | 8.0 | 0.00 | 0.00 | 0.00 | 61 | 1015.3 |
| 20260507093340 | 65 | 114 | 0.0 | 9.0 | 0.00 | 0.00 | 0.00 | 61 | 1015.3 |
| 20260507092356 | 64 | 123 | 0.0 | 6.0 | 0.00 | 0.00 | 0.00 | 63 | 1015.3 |
| 20260507091341 | 64 | 111 | 4.0 | 8.0 | 0.00 | 0.00 | 0.00 | 62 | 1015.3 |
| 20260507090346 | 65 | 113 | 3.0 | 9.0 | 0.00 | 0.00 | 0.00 | 61 | 1015.1 |
| 20260507085342 | 65 | 137 | 2.0 | 5.0 | 0.00 | 0.00 | 0.00 | 62 | 1015.1 |
| 20260507084349 | 65 | 98 | 1.0 | 5.0 | 0.00 | 0.00 | 0.00 | 64 | 1015.2 |
| 20260507083357 | 64 | 0 | 0.0 | 4.0 | 0.00 | 0.00 | 0.00 | 66 | 1015.2 |
| 20260507082354 | 63 | 0 | 3.0 | 6.0 | 0.00 | 0.00 | 0.00 | 67 | 1015.2 |
| 20260507081351 | 62 | 327 | 2.0 | 5.0 | 0.00 | 0.00 | 0.00 | 69 | 1015.3 |
| 20260507080356 | 61 | 336 | 2.0 | 5.0 | 0.00 | 0.00 | 0.00 | 70 | 1015.4 |
| 20260507075337 | 60 | 336 | 1.0 | 4.0 | 0.00 | 0.00 | 0.00 | 71 | 1015.6 |
| 20260507074344 | 59 | 338 | 3.0 | 4.0 | 0.00 | 0.00 | 0.00 | 71 | 1015.5 |
| 20260507073335 | 59 | 354 | 2.0 | 4.0 | 0.00 | 0.00 | 0.00 | 72 | 1015.5 |
| 20260507072353 | 59 | 0 | 1.0 | 4.0 | 0.00 | 0.00 | 0.00 | 73 | 1015.5 |
| 20260507071337 | 59 | 2 | 3.0 | 5.0 | 0.00 | 0.00 | 0.00 | 73 | 1015.5 |
| 20260507070339 | 58 | 49 | 1.0 | 2.0 | 0.00 | 0.00 | 0.00 | 74 | 1015.4 |
| 20260507065356 | 58 | 49 | 2.0 | 3.0 | 0.00 | 0.00 | 0.00 | 74 | 1015.2 |
| 20260507064340 | 58 | 49 | 0.0 | 4.0 | 0.00 | 0.00 | 0.00 | 76 | 1015.3 |
| 20260507063342 | 57 | 50 | 2.0 | 5.0 | 0.00 | 0.00 | 0.00 | 77 | 1015.0 |
| 20260507062339 | 56 | 62 | 2.0 | 5.0 | 0.00 | 0.00 | 0.00 | 79 | 1015.0 |
| 20260507061340 | 56 | 68 | 0.0 | 5.0 | 0.00 | 0.00 | 0.00 | 81 | 1015.1 |
| 20260507060344 | 56 | 46 | 2.0 | 4.0 | 0.00 | 0.00 | 0.00 | 83 | 1014.9 |
| 20260507055346 | 56 | 40 | 0.0 | 3.0 | 0.00 | 0.00 | 0.00 | 84 | 1015.0 |
| 20260507054351 | 55 | 39 | 0.0 | 2.0 | 0.00 | 0.00 | 0.00 | 84 | 1014.8 |
| 20260507053339 | 55 | 40 | 0.0 | 2.0 | 0.00 | 0.00 | 0.00 | 85 | 1014.9 |
| 20260507052337 | 55 | 39 | 0.0 | 0.0 | 0.00 | 0.00 | 0.00 | 85 | 1014.7 |
| 20260507051343 | 54 | 39 | 0.0 | 0.0 | 0.00 | 0.00 | 0.00 | 85 | 1014.5 |
| 20260507050345 | 54 | 39 | 0.0 | 0.0 | 0.00 | 0.00 | 0.00 | 84 | 1014.5 |
| 20260507045340 | 54 | 39 | 0.0 | 0.0 | 0.00 | 0.00 | 0.00 | 84 | 1014.3 |
| 20260507044338 | 54 | 48 | 0.0 | 0.0 | 0.00 | 0.00 | 0.00 | 84 | 1014.4 |
| 20260507043341 | 54 | 48 | 0.0 | 0.0 | 0.00 | 0.00 | 0.00 | 83 | 1014.5 |
| 20260507042339 | 54 | 48 | 0.0 | 0.0 | 0.00 | 0.00 | 0.00 | 83 | 1014.3 |
| 20260507041343 | 55 | 48 | 0.0 | 0.0 | 0.00 | 0.00 | 0.00 | 83 | 1014.4 |
| 20260507040349 | 55 | 48 | 0.0 | 0.0 | 0.00 | 0.00 | 0.00 | 82 | 1014.3 |
| 20260507035347 | 55 | 48 | 0.0 | 0.0 | 0.00 | 0.00 | 0.00 | 83 | 1014.4 |
| 20260507034350 | 55 | 48 | 0.0 | 0.0 | 0.00 | 0.00 | 0.00 | 82 | 1014.3 |
| 20260507033357 | 55 | 48 | 0.0 | 0.0 | 0.00 | 0.00 | 0.00 | 81 | 1014.4 |
| 20260507032353 | 56 | 48 | 0.0 | 0.0 | 0.00 | 0.00 | 0.00 | 82 | 1014.4 |
| 20260507031337 | 56 | 48 | 0.0 | 0.0 | 0.00 | 0.00 | 0.00 | 82 | 1014.4 |
| 20260507030338 | 56 | 48 | 0.0 | 0.0 | 0.00 | 0.00 | 0.00 | 81 | 1014.4 |
| 20260507025344 | 56 | 48 | 0.0 | 0.0 | 0.00 | 0.00 | 0.00 | 81 | 1014.4 |
| 20260507024350 | 57 | 48 | 0.0 | 3.0 | 0.00 | 0.00 | 0.00 | 81 | 1014.4 |
| 20260507023355 | 57 | 47 | 1.0 | 5.0 | 0.00 | 0.00 | 0.00 | 81 | 1014.3 |
| 20260507022355 | 57 | 43 | 2.0 | 4.0 | 0.00 | 0.00 | 0.00 | 80 | 1014.3 |
| 20260507021341 | 57 | 40 | 2.0 | 5.0 | 0.00 | 0.00 | 0.00 | 80 | 1014.4 |
| 20260507020342 | 57 | 36 | 0.0 | 2.0 | 0.00 | 0.00 | 0.00 | 80 | 1014.4 |
| 20260507015340 | 57 | 36 | 1.0 | 4.0 | 0.00 | 0.00 | 0.00 | 80 | 1014.4 |
| 20260507014342 | 58 | 35 | 0.0 | 0.0 | 0.00 | 0.00 | 0.00 | 79 | 1014.6 |
| 20260507013343 | 58 | 35 | 0.0 | 0.0 | 0.00 | 0.00 | 0.00 | 79 | 1014.5 |
| 20260507012337 | 57 | 35 | 0.0 | 0.0 | 0.00 | 0.00 | 0.00 | 78 | 1014.5 |
| 20260507011336 | 57 | 35 | 1.0 | 3.0 | 0.00 | 0.00 | 0.00 | 76 | 1014.6 |
| 20260507010341 | 59 | 34 | 0.0 | 4.0 | 0.00 | 0.00 | 0.00 | 77 | 1014.5 |
| 20260507005340 | 59 | 29 | 2.0 | 5.0 | 0.00 | 0.00 | 0.00 | 77 | 1014.5 |
| 20260507004343 | 59 | 29 | 2.0 | 4.0 | 0.00 | 0.00 | 0.00 | 77 | 1014.6 |
| 20260507003351 | 59 | 27 | 0.0 | 8.0 | 0.00 | 0.00 | 0.00 | 76 | 1014.7 |
| 20260507002350 | 59 | 11 | 5.0 | 7.0 | 0.00 | 0.00 | 0.00 | 76 | 1014.7 |
| 20260507001352 | 59 | 54 | 0.0 | 3.0 | 0.00 | 0.00 | 0.00 | 76 | 1014.8 |
| 20260507000357 | 59 | 54 | 0.0 | 4.0 | 0.00 | 0.00 | 0.00 | 76 | 1014.9 |
| 20260506235358 | 59 | 48 | 1.0 | 4.0 | 0.00 | 0.00 | 0.00 | 76 | 1014.8 |
| 20260506234342 | 59 | 46 | 3.0 | 6.0 | 0.00 | 0.00 | 0.00 | 76 | 1014.8 |
| 20260506233350 | 59 | 50 | 4.0 | 7.0 | 0.00 | 0.00 | 0.00 | 76 | 1014.8 |
| 20260506232347 | 59 | 36 | 4.0 | 8.0 | 0.00 | 0.00 | 0.00 | 76 | 1014.8 |
| 20260506231354 | 59 | 55 | 3.0 | 5.0 | 0.00 | 0.00 | 0.00 | 76 | 1014.8 |
| 20260506230336 | 59 | 56 | 2.0 | 4.0 | 0.00 | 0.00 | 0.00 | 75 | 1014.8 |
| 20260506225338 | 60 | 55 | 2.0 | 6.0 | 0.00 | 0.00 | 0.00 | 75 | 1014.8 |
| 20260506224340 | 60 | 39 | 4.0 | 7.0 | 0.00 | 0.00 | 0.00 | 75 | 1014.8 |
| 20260506223342 | 60 | 32 | 3.0 | 5.0 | 0.00 | 0.00 | 0.00 | 75 | 1014.8 |
| 20260506222337 | 60 | 44 | 3.0 | 6.0 | 0.00 | 0.00 | 0.00 | 74 | 1014.8 |
| 20260506221335 | 60 | 34 | 2.0 | 4.0 | 0.00 | 0.00 | 0.00 | 72 | 1014.8 |
| 20260506220340 | 61 | 25 | 2.0 | 3.0 | 0.00 | 0.00 | 0.00 | 72 | 1014.7 |
| 20260506215339 | 61 | 25 | 1.0 | 3.0 | 0.00 | 0.00 | 0.00 | 71 | 1014.6 |
| 20260506214340 | 61 | 26 | 0.0 | 2.0 | 0.00 | 0.00 | 0.00 | 71 | 1014.7 |
| 20260506213343 | 61 | 26 | 0.0 | 2.0 | 0.00 | 0.00 | 0.00 | 70 | 1014.6 |